User: anonymous   Login
Location: Unspecified
(0.0000°N, 0.0000°E)
Time: 09:46:50
(UTC+00:00)
Language:

GEOEYE 1 - Orbit

View from above orbital plane
View from above orbital plane
View from above satellite
View from above satellite

Ground track
Ground track

The orbit data is extracted from the following two-line orbital elements,

1 33331U 08042A   15212.75130404  .00000059  00000-0  20176-4 0  9996
2 33331 098.1051 287.1576 0007469 257.6702 102.3649 14.64437549368650
Epoch (UTC): 31 July 2015 18:01:52
Eccentricity: 0.0007469
inclination: 98.1051°
perigee height: 673 km
apogee height: 684 km
right ascension of ascending node: 287.1576°
argument of perigee: 257.6702°
revolutions per day: 14.64437549
mean anomaly at epoch: 102.3649°
orbit number at epoch: 36865

The dashed part of the orbit path shows where the satellite is in the earth's shadow,  

DLR